"Figure 4: Growth of Imports from Asia�G3 (y-o-y, %)",,,
,Japan,eurozone,US
1/1/2007,9.895055816,17.9827429,13.23630772
2/1/2007,12.39408227,19.58713676,13.55365479
3/1/2007,6.754799173,21.24288568,12.28048212
4/1/2007,6.396193646,20.93005734,10.65561126
5/1/2007,3.456976443,16.03536338,8.434552292
6/1/2007,5.946787627,12.93448211,8.140161054
7/1/2007,8.601468466,14.99844761,8.015915208
8/1/2007,7.566017334,17.97494144,5.546797283
9/1/2007,5.771714707,18.8475183,3.949466671
10/1/2007,4.179839143,18.58386202,2.975027999
11/1/2007,6.085164052,18.37279489,4.446724263
12/1/2007,9.272287647,19.16336806,5.569762534
1/1/2008,11.9959147,20.36622927,4.895391543
2/1/2008,11.7759555,19.08811029,4.800006133
3/1/2008,17.62459954,21.84331086,3.099934708
4/1/2008,19.93857077,23.89076751,4.733449245
5/1/2008,20.77713566,26.63630952,4.315077887
6/1/2008,20.68689455,26.13687529,5.298946908
7/1/2008,21.6101766,23.82090764,5.938756609
8/1/2008,22.2780754,21.75253151,6.700606607
9/1/2008,25.0787868,17.41226654,8.95428338
10/1/2008,25.49509426,8.499685916,7.571672138
11/1/2008,22.14187705,-1.662784898,2.161381463
12/1/2008,14.42256189,-9.235140507,-3.11583769
1/1/2009,3.381921507,-17.07620753,-9.201253358
2/1/2009,-7.65852824,-23.17739819,-13.99713692
3/1/2009,-19.63081545,-29.42654378,-16.50418211
4/1/2009,-25.8629424,-32.58363242,-19.41026057
5/1/2009,-27.30988352,-32.87072815,-18.66214713
6/1/2009,-27.99372522,-33.15758836,-20.0068652
7/1/2009,-27.85738449,-33.09890414,-19.85329703
8/1/2009,-25.32596477,-32.05991945,-19.63730069
9/1/2009,-22.85837064,-28.17066042,-18.88383298
10/1/2009,-22.95072554,-20.91977103,-16.93367309
11/1/2009,-19.34214957,-12.08072748,-11.70186615
12/1/2009,-15.90977767,-6.603441394,-5.269363995
1/1/2010,-7.34266682,0.881607903,0.830555542
2/1/2010,4.861711767,6.753063145,7.713151564
3/1/2010,18.0699423,19.70993885,11.98991503
4/1/2010,29.29431369,25.2497464,19.50347814
5/1/2010,32.32444344,27.15256009,22.72567877
6/1/2010,36.6605113,25.60570006,29.19051465
7/1/2010,36.84962562,25.9591044,30.47260425
8/1/2010,35.36758626,28.11342431,32.29827816
9/1/2010,31.25354533,25.86613364,28.25180546
10/1/2010,28.94925728,25.11966631,25.17350002
11/1/2010,26.51090133,24.01922809,22.50024933
12/1/2010,26.48020758,22.44895788,19.42964845
1/1/2011,27.9223587,20.65079164,21.21049306
2/1/2011,24.14180743,22.10283174,18.29026762
3/1/2011,25.49331273,22.10367151,18.9853341
4/1/2011,22.69194791,25.49904258,16.84543491
5/1/2011,24.33301051,25.66541525,17.04474593
6/1/2011,21.85932887,27.42865308,14.20252878
7/1/2011,21.95718885,24.70009429,11.42776833
8/1/2011,24.1613942,21.98095617,8.435504632
9/1/2011,22.92218651,17.92029344,7.397914921
10/1/2011,24.03082755,12.56154875,7.125700497
11/1/2011,18.84708142,6.293072806,5.966428566
12/1/2011,17.3570498,4.651602934,6.105624957
1/1/2012,15.86338593,2.065230606,5.907734077
2/1/2012,15.3372512,1.801733988,6.783718995
3/1/2012,12.05707522,-3.352948817,7.971718477
4/1/2012,7.477767869,-7.571202797,7.537182669
5/1/2012,7.822498825,-12.10330752,6.102694243
6/1/2012,5.151796032,-12.39639721,3.895206264
7/1/2012,4.141545712,-14.01034605,4.196493342
8/1/2012,-2.92412479,-16.10384126,3.201314106
9/1/2012,-2.400031118,-16.49092016,3.275055002
10/1/2012,-3.471076034,-13.14248334,2.711328193
11/1/2012,-1.463122851,-10.08710294,4.474345201
12/1/2012,-3.325234759,-7.601915441,5.377685311
1/1/2013,-6.239437997,-4.340847415,6.283014475
2/1/2013,-7.343734502,-5.2204989,7.240938576
3/1/2013,-8.41610803,-7.021433154,2.91104732
4/1/2013,-7.145246513,-9.520412039,1.048426651
5/1/2013,-9.948392873,-6.366364339,0.135368458
6/1/2013,-9.679151968,-6.017262685,2.214327921
7/1/2013,-9.726653248,-3.25554998,2.376638591
Note: Based on 3-month moving average of commodity imports.,,,
Source: ADB calculations using data from CEIC.,,,
